Flag for India Weather past 2 weeks in Faridkot, Punjab, India

Now
52 °F

Fog.


Feels Like: 52 °F
Forecast: 49 / 72 °F
Wind: No wind

Location: Lahore Airport

Current Time: Mar 3, 2015 at 5:40:39 AM

Latest Report: Mar 3, 2015 at 5:30 AM


Visibility: 2 mi

Pressure: 29.95 "Hg

Humidity: 94%

Dew point: 50 °F

Location of FaridkotLocation

Historic Weather in Faridkot — Graph

°F

Faridkot temperature yesterday

Maximum temperature yesterday: 63 °F (at 2:25 PM)
Minimum temperature yesterday: 55 °F (at 12:25 AM)
Average temperature yesterday: 59 °F

Past Weeks' High & Low Weather Summary

 TemperatureHumidityPressure
High77 °F (Feb 22, 2:25 PM)100% (Feb 16, 6:00 PM)30.09 "Hg (Feb 16, 6:00 PM)
Low48 °F (Feb 27, 6:55 AM)25% (Feb 26, 3:25 PM)29.68 "Hg (Feb 25, 5:25 AM)
Average63 °F70%29.93 "Hg
* Reported Feb 16 3:55 AM — Mar 3 4:25 AM, Faridkot, Weather by CustomWeather, © 2015

Note: Actual official high and low records may vary slightly from our data, if they occured in-between our weather recording intervals... More about our weather records

Advertising

Faridkot weather history for previous 24 hours

 ConditionsComfort  
Time TempWeatherWind HumidityBarometerVisibility
4:25 AM
Tue, Mar 3
54 °FPassing clouds.No wind88%29.95 "Hg2 mi
3:55 AM54 °FPassing clouds.No wind88%29.95 "Hg2 mi
3:25 AM54 °FPassing clouds.3 mph88%29.95 "Hg2 mi
2:55 AM55 °FPassing clouds.No wind82%29.95 "Hg2 mi
2:25 AM55 °FPassing clouds.No wind82%29.98 "Hg2 mi
1:55 AM55 °FPassing clouds.3 mph82%29.98 "Hg2 mi
1:25 AM55 °FPassing clouds.3 mph82%29.98 "Hg2 mi
12:54 AM57 °FSmoke.No wind77%29.98 "Hg2 mi
12:25 AM57 °FPassing clouds.No wind77%29.98 "Hg2 mi
11:55 PM
Mon, Mar 2
57 °FPassing clouds.3 mph77%29.98 "Hg2 mi
11:25 PM57 °FPassing clouds.3 mph77%29.98 "Hg2 mi
10:55 PM57 °FPassing clouds.No wind82%29.98 "Hg2 mi
10:25 PM57 °FPassing clouds.No wind82%29.98 "Hg2 mi
9:55 PM59 °FPassing clouds.3 mph77%29.98 "Hg2 mi
9:25 PM59 °FPartly cloudy.3 mph77%29.95 "Hg2 mi
8:55 PM59 °FPassing clouds.5 mph77%29.95 "Hg2 mi
8:25 PM59 °FFog.3 mph77%29.95 "Hg2 mi
7:55 PM61 °FPartly cloudy.3 mph72%29.92 "Hg2 mi
7:30 PM61 °FPartly cloudy.5 mph72%29.92 "Hg2 mi
7:00 PM61 °FPartly cloudy.5 mph72%29.92 "Hg2 mi
6:30 PM61 °FPartly cloudy.5 mph72%29.92 "Hg2 mi
6:00 PM61 °FBroken clouds.7 mph72%29.89 "Hg2 mi
5:30 PM63 °FBroken clouds.7 mph68%29.89 "Hg2 mi
5:00 PM63 °FBroken clouds.7 mph73%29.89 "Hg2 mi
4:30 PM63 °FBroken clouds.7 mph73%29.89 "Hg2 mi
4:00 PM63 °FBroken clouds.8 mph73%29.89 "Hg2 mi
3:30 PM63 °FBroken clouds.8 mph73%29.89 "Hg2 mi
3:00 PM63 °FBroken clouds.8 mph77%29.89 "Hg2 mi
2:25 PM63 °FBroken clouds.9 mph77%29.89 "Hg2 mi
1:55 PM61 °FBroken clouds.7 mph77%29.89 "Hg2 mi
1:25 PM61 °FBroken clouds.9 mph77%29.89 "Hg2 mi
12:55 PM61 °FBroken clouds.9 mph83%29.92 "Hg2 mi
11:55 AM59 °FLight rain. More clouds than sun.8 mph88%29.92 "Hg2 mi
11:25 AM59 °FMore clouds than sun.12 mph88%29.92 "Hg2 mi
10:55 AM59 °FMore clouds than sun.9 mph88%29.92 "Hg2 mi
10:25 AM59 °FBroken clouds.8 mph88%29.89 "Hg2 mi
9:55 AM59 °FFog.12 mph88%29.89 "Hg2 mi
9:25 AM59 °FFog.10 mph88%29.86 "Hg2 mi
9:00 AM59 °FFog.9 mph88%29.86 "Hg2 mi
8:25 AM59 °FFog.12 mph88%29.83 "Hg2 mi
7:55 AM55 °FFog.9 mph94%29.80 "Hg1 mi
7:25 AM55 °FSmoke.14 mph94%29.80 "Hg2 mi
6:55 AM55 °FPartly cloudy.7 mph94%29.77 "Hg2 mi
Weather by CustomWeather, © 2015

See weather overviewHow to use our weather pages